Find Starlink 11076

NORAD ID: 58709 Int'l Des: 2024-002 Owner: SPXS Country: US Constellation: starlink operational
LEOCIRCULAR

Current View

Loading 3D Globe...

About Starlink 11076

Starlink 11076 (NORAD 58709) is a starlink constellation satellite (v2 mini d2c) launched Jan 3, 2024 by SPXS of US. It operates in LEO, CIRCULAR orbit with a mass of 960.00 kg.

About Starlink 11076

Description loading...

Upcoming Passes

Passes for default location (London). Set your location on the main map for personalized predictions.

Altitude History

Loading altitude history...

Two-Line Element Set

1 58709U 24002E 26166.26107336 .00000690 00000-0 10559-4 0 9995
2 58709 53.1583 152.9112 0001238 43.2906 316.8209 15.69702317141764
Epoch: Jun 15, 2026 • Age: 23 hours

Current Status

Altitude 359.8 km
Velocity 7.70 km/s
Sub-Earth Point 2.28°N, 167.43°E
Launch Date Jan 3, 2024
Age 2.4 years
Type internet

Technical Details

Classification Payload
Mass 960.00 kg
Dry Mass 910.00 kg
Total Mass 960.00 kg
Length 0.30 m
Diameter 4.10 m
Span 29.00 m
Shape Box + pan
Manufacturer SPXS
Bus Type Starlink V2MD
Phase Status In Orbit
Owner/State SPXS/US

Most Searched